STARLINK-4666, 53789

Orbit data source: Space-Track

STARLINK-4666, 53789 is a payload satellite owned by SpaceX/Seattle (US) in LEO that was launched on Sun, 11 Sep 2022 UTC via an FALCON 9 launch vehicle from the Air Force Eastern Test Range (AFETR). Payload-class satellites include a variety of spacecraft equipped with specific instruments for various scientific and technological missions. These include communications satellites like Starlink; space stations such as the ISS; scientific satellites like the Hubble; Earth observation satellites from companies like Planet Labs, Umbra, and HawkEye 360; GPS; miniature CubeSats for education and research; and military/defense satellites.

Loading next visibility...
Identifier
53789, 2022-111S
Orbit
LEO
Country
Flag of USUS
Related business
Manufacturer
SpaceX/Seattle
Mission
Operational Commercial Communications
Bus & Motor
STARLINK, Unknown motor
Mass
305 kg wet, ~290 kg dry
Launch date (UTC)
2022-09-11 (4 years ago)
Launch vehicle
FALCON 9
Launch site
Air Force Eastern Test Range (AFETR)
Object type
Payload
Rocket body
Debris
Shape & HBR
Box + 1 Pan, 10.1 m
Radar Cross Section
13.562 m², Large (>1 m²)

Expand to show TLE details & history
Last TLE update: 21 hours ago

TLE from 21 hours ago
0 STARLINK-4666
1 53789U 22111S   26263.12769433  .00004291  00000-0  13814-3 0  9999
2 53789  53.1588 115.4135 0001217  86.8083 273.3059 15.34382184223115
Epoch: 2026-09-20T03:03Z
TLE epoch observation values (Epoch: 2026-09-20T03:03:52.790Z)
Latitude
0.00001°
Longitude
70.41722°
Altitude
463.609 km
Speed
7.636 km/s
True Right ascension
07h 41m 39s
True Declination
0° 00' 00"
Sunlit
Object was in daylight at epoch
Visualization orbit readout
Latitude
Unknown
Longitude
Unknown
Altitude
Unknown
Speed
Unknown
Apparent Right ascension
Unknown
Apparent Declination
Unknown
Sunlit
N/A
Visualization observer readout
Local Sidereal Time
17:09:29
Azimuth
Unknown
Elevation
Unknown
Doppler factor
Unknown
Orbital elements
Apogee altitude
463.846 km
Perigee altitude
462.181 km
Semi-major axis
6,841.15 km
Eccentricity
0.00012
Inclination
53.1588°
RAAN
115.4135°
Arg. of periapsis
86.8083°
True anomaly
273.29198°
Mean anomaly
273.3059°
Eccentric anomaly
273.29894°
Mean motion
3.83574 °/min
Orbital period
93.85 mins
BSTAR
0.00013814
Loading maneuver chart data...
Computing Atmospheric mass density...
Loading historical data...
Loading historical data...
Loading historical data...
Loading historical data...
Loading historical data...
Loading historical data...
Loading historical data...

Documentation

Showing up to 5 results
|